International Virtual Aviation Organisation

Russian Federation and Kazakhstan MCD

 

Карточка аэропорта UNOO

Внимание!
Информация на этой странице в стадии наполнения.
Если вы не увидели какой-то информации, или заметили неточность - пожалуйста сообщите нам!
Спасибо!
Команда RU-STAFF
Название аэропортаЦентральный
Название аэропорта (англ.)Tsentralny
Превышение303 ft. (92.4 m.)
Координаты54°58.02', 73°19.02'
Высота перехода800m
Эшелон переходаQFE>=751mm:FL050; QFE<751=>724:FL060; QFE<724:FL070
Коды ответчика5440-5467
Зона ОрВДНовосибирск РПИ (UNNT)
Данные METARUNOO 080230Z 24006MPS 9999 BKN011 BKN033CB M01/M03 Q1016 R25/390137 NOSIG RMK QFE754
Проноз погоды (TAF)UNOO 080145Z 0803/0903 25005G11MPS 6000 BKN011 BKN030CB TEMPO 0815/0821 2100 -SHSN SCT006 BKN020CB
NOTAMshow/hide NOTAM
AWOS   TABLE

Информация о ВПП

ВПП Длина ВПП (м.) Покрытие Курс ВПП Частота ILS
072501Асфальтобетон65108.3
252501Асфальтобетон245110.1

Диспетчерские позиции

Позывной Наименование органа УВД Частота
UNOO_GNDОмск-Руление121.700
UNOO_TWRОмск - Старт119.000
UNOO_APPОмск - Подход131.200



Спутниковое изображение